Precipitable_Water
0.50 0.35 0.26 0.31 0.39 0.40 0.39 0.37 0.34 0.37 0.39 0.33 0.32 0.32 0.30 0.31 0.35 0.34 0.34 0.37 0.40 0.44 0.54 0.58 0.60 0.58 0.56 0.57 0.52 0.48 0.49 0.47 0.46 0.45 0.43 0.44 0.43 0.45 0.47 0.48 0.48 0.50 0.48 0.48
0.34 0.35 0.41 0.36 0.36 0.38 0.39 0.34 0.32 0.36 0.40 0.34 0.30 0.30 0.34 0.33 0.33 0.36 0.39 0.38 0.40 0.44 0.52 0.58 0.62 0.62 0.55 0.55 0.54 0.51 0.49 0.48 0.47 0.45 0.45 0.45 0.45 0.46 0.48 0.51 0.48 0.51 0.48 0.47
0.27 0.30 0.40 0.40 0.31 0.26 0.35 0.34 0.33 0.34 0.39 0.41 0.38 0.32 0.34 0.35 0.33 0.36 0.39 0.40 0.41 0.46 0.52 0.56 0.59 0.59 0.54 0.53 0.54 0.51 0.49 0.49 0.49 0.47 0.48 0.47 0.48 0.48 0.49 0.45 0.48 0.49 0.50 0.49
0.28 0.34 0.33 0.36 0.33 0.32 0.26 0.36 0.33 0.32 0.32 0.27 0.38 0.26 0.35 0.35 0.35 0.35 0.37 0.40 0.40 0.44 0.51 0.55 0.59 0.58 0.56 0.54 0.55 0.52 0.51 0.49 0.49 0.49 0.48 0.46 0.45 0.43 0.46 0.48 0.51 0.51 0.53 0.51
0.31 0.32 0.30 0.29 0.32 0.34 0.28 0.34 0.30 0.29 0.27 0.29 0.27 0.27 0.24 0.31 0.32 0.34 0.35 0.39 0.42 0.43 0.49 0.51 0.56 0.59 0.59 0.57 0.55 0.53 0.52 0.51 0.52 0.51 0.50 0.49 0.47 0.48 0.49 0.49 0.49 0.51 0.51 0.53
0.33 0.47 0.43 0.35 0.36 0.34 0.35 0.31 0.28 0.29 0.29 0.21 0.21 0.24 0.18 0.23 0.26 0.30 0.36 0.38 0.42 0.49 0.52 0.56 0.58 0.57 0.56 0.57 0.56 0.54 0.51 0.51 0.51 0.51 0.50 0.47 0.46 0.46 0.46 0.47 0.50 0.52 0.52 0.54
0.26 0.30 0.38 0.39 0.32 0.34 0.31 0.29 0.23 0.20 0.20 0.17 0.23 0.25 0.22 0.27 0.32 0.33 0.35 0.38 0.43 0.48 0.53 0.54 0.53 0.52 0.52 0.54 0.54 0.53 0.51 0.50 0.51 0.51 0.50 0.51 0.50 0.51 0.50 0.51 0.50 0.50 0.51 0.51
0.28 0.25 0.27 0.27 0.29 0.30 0.28 0.28 0.23 0.17 0.17 0.20 0.25 0.22 0.26 0.37 0.40 0.39 0.39 0.42 0.44 0.49 0.52 0.54 0.55 0.54 0.53 0.54 0.53 0.50 0.50 0.49 0.51 0.51 0.50 0.50 0.51 0.52 0.53 0.53 0.52 0.53 0.53 0.54
0.30 0.24 0.34 0.41 0.44 0.36 0.30 0.28 0.33 0.28 0.26 0.24 0.23 0.26 0.33 0.40 0.42 0.43 0.40 0.42 0.48 0.54 0.58 0.58 0.56 0.55 0.53 0.54 0.57 0.57 0.54 0.52 0.52 0.51 0.51 0.52 0.54 0.54 0.54 0.56 0.56 0.53 0.51 0.50
0.44 0.35 0.39 0.43 0.47 0.46 0.38 0.39 0.32 0.38 0.25 0.23 0.24 0.25 0.27 0.36 0.40 0.44 0.44 0.48 0.55 0.58 0.58 0.58 0.56 0.55 0.54 0.55 0.58 0.57 0.54 0.52 0.51 0.52 0.52 0.53 0.54 0.56 0.57 0.56 0.52 0.50 0.49 0.47
0.42 0.40 0.33 0.42 0.39 0.39 0.39 0.36 0.43 0.43 0.39 0.28 0.25 0.25 0.40 0.41 0.48 0.48 0.49 0.53 0.55 0.58 0.57 0.56 0.54 0.56 0.55 0.56 0.57 0.55 0.52 0.50 0.50 0.51 0.53 0.55 0.57 0.57 0.56 0.54 0.51 0.47 0.46 0.45
0.38 0.36 0.34 0.33 0.42 0.43 0.41 0.39 0.38 0.32 0.28 0.32 0.27 0.22 0.38 0.43 0.45 0.49 0.51 0.55 0.54 0.55 0.56 0.56 0.54 0.54 0.53 0.53 0.53 0.53 0.52 0.51 0.51 0.51 0.54 0.57 0.56 0.54 0.51 0.48 0.46 0.45 0.42 0.42
0.39 0.30 0.23 0.22 0.29 0.29 0.30 0.37 0.40 0.43 0.42 0.31 0.28 0.24 0.40 0.46 0.47 0.53 0.53 0.58 0.59 0.58 0.55 0.53 0.52 0.51 0.52 0.52 0.51 0.51 0.51 0.50 0.52 0.55 0.55 0.55 0.52 0.48 0.46 0.45 0.43 0.43 0.41 0.40
0.36 0.26 0.22 0.18 0.21 0.25 0.26 0.29 0.31 0.32 0.29 0.31 0.29 0.31 0.36 0.41 0.45 0.52 0.51 0.54 0.59 0.61 0.55 0.52 0.51 0.51 0.52 0.53 0.50 0.49 0.50 0.53 0.53 0.54 0.53 0.51 0.48 0.46 0.44 0.41 0.40 0.39 0.39 0.37
0.27 0.20 0.20 0.19 0.18 0.18 0.20 0.22 0.22 0.22 0.27 0.28 0.30 0.34 0.33 0.36 0.35 0.35 0.34 0.42 0.51 0.55 0.54 0.50 0.49 0.50 0.53 0.52 0.50 0.52 0.55 0.54 0.55 0.54 0.47 0.46 0.45 0.41 0.39 0.37 0.37 0.37 0.35 0.34
0.27 0.18 0.19 0.17 0.18 0.18 0.16 0.17 0.18 0.20 0.21 0.21 0.22 0.20 0.22 0.25 0.27 0.26 0.29 0.32 0.49 0.51 0.58 0.50 0.50 0.50 0.50 0.49 0.50 0.53 0.54 0.54 0.53 0.46 0.44 0.42 0.38 0.37 0.35 0.34 0.32 0.32 0.31 0.30
0.26 0.24 0.19 0.16 0.20 0.21 0.19 0.16 0.19 0.20 0.22 0.20 0.18 0.20 0.23 0.24 0.23 0.25 0.28 0.43 0.49 0.61 0.54 0.48 0.50 0.50 0.51 0.51 0.53 0.52 0.52 0.50 0.46 0.43 0.39 0.37 0.33 0.31 0.30 0.28 0.27 0.26 0.25 0.25
0.27 0.25 0.25 0.19 0.20 0.13 0.14 0.20 0.22 0.24 0.25 0.24 0.22 0.25 0.27 0.29 0.31 0.39 0.45 0.48 0.47 0.55 0.57 0.51 0.55 0.56 0.52 0.53 0.52 0.53 0.48 0.45 0.40 0.36 0.33 0.31 0.28 0.26 0.24 0.22 0.21 0.20 0.21 0.20
0.25 0.23 0.17 0.15 0.15 0.16 0.16 0.14 0.17 0.17 0.16 0.19 0.25 0.26 0.26 0.27 0.39 0.44 0.49 0.52 0.53 0.54 0.54 0.56 0.61 0.55 0.51 0.51 0.50 0.46 0.42 0.37 0.34 0.31 0.29 0.25 0.23 0.20 0.19 0.18 0.18 0.18 0.18 0.18
0.18 0.20 0.18 0.17 0.15 0.12 0.13 0.17 0.21 0.22 0.17 0.21 0.35 0.30 0.31 0.31 0.20 0.40 0.49 0.56 0.52 0.50 0.51 0.52 0.54 0.51 0.51 0.49 0.45 0.38 0.34 0.32 0.28 0.27 0.23 0.21 0.19 0.18 0.17 0.17 0.17 0.17 0.16 0.16
0.22 0.20 0.16 0.15 0.16 0.17 0.18 0.22 0.25 0.20 0.20 0.35 0.38 0.39 0.34 0.39 0.47 0.50 0.52 0.50 0.51 0.48 0.48 0.52 0.51 0.49 0.47 0.43 0.37 0.33 0.29 0.26 0.24 0.22 0.20 0.19 0.17 0.17 0.18 0.17 0.16 0.16 0.14 0.14
0.17 0.18 0.21 0.21 0.18 0.15 0.24 0.24 0.21 0.23 0.34 0.39 0.39 0.43 0.44 0.48 0.47 0.48 0.45 0.43 0.42 0.42 0.45 0.47 0.47 0.44 0.41 0.37 0.32 0.27 0.23 0.21 0.19 0.18 0.17 0.16 0.16 0.17 0.17 0.16 0.15 0.15 0.13 0.13
0.14 0.15 0.16 0.21 0.26 0.33 0.33 0.35 0.38 0.45 0.47 0.43 0.44 0.48 0.45 0.42 0.40 0.40 0.39 0.39 0.40 0.41 0.44 0.45 0.43 0.39 0.35 0.31 0.28 0.21 0.17 0.17 0.16 0.15 0.15 0.16 0.15 0.17 0.17 0.16 0.15 0.14 0.13 0.12
0.20 0.21 0.20 0.22 0.24 0.29 0.30 0.33 0.33 0.36 0.46 0.40 0.46 0.45 0.44 0.37 0.36 0.35 0.37 0.39 0.42 0.45 0.45 0.43 0.38 0.32 0.28 0.26 0.21 0.17 0.15 0.15 0.14 0.14 0.14 0.16 0.15 0.16 0.17 0.17 0.16 0.14 0.13 0.12
0.21 0.23 0.20 0.21 0.26 0.25 0.25 0.30 0.37 0.48 0.45 0.44 0.43 0.43 0.41 0.38 0.39 0.43 0.42 0.44 0.45 0.43 0.41 0.36 0.31 0.27 0.24 0.20 0.16 0.15 0.14 0.14 0.14 0.14 0.14 0.16 0.16 0.15 0.16 0.18 0.17 0.16 0.15 0.15
0.26 0.24 0.21 0.21 0.29 0.31 0.38 0.44 0.50 0.47 0.49 0.45 0.42 0.44 0.46 0.46 0.47 0.48 0.46 0.45 0.43 0.38 0.33 0.30 0.28 0.24 0.19 0.16 0.14 0.13 0.14 0.15 0.14 0.14 0.15 0.15 0.15 0.16 0.16 0.16 0.17 0.19 0.18 0.18
Wind_Speed
25 26 27 26 26 28 26 27 26 24 21 23 23 24 24 23 24 24 24 25 25 25 24 23 22 22 23 22 23 22 21 21 21 21 21 22 22 22 22 22 22 22 23 24
29 33 29 28 29 29 28 28 28 27 26 26 27 26 24 23 26 28 27 26 27 26 25 23 22 23 23 22 23 23 22 22 22 22 23 23 24 24 23 23 24 24 25 25
34 32 30 31 31 31 30 30 28 29 27 29 28 31 30 28 29 29 31 28 26 28 27 24 22 22 22 22 22 23 23 23 23 23 24 24 25 25 24 26 25 26 27 27
37 32 33 32 29 28 32 29 30 31 29 29 27 31 29 26 26 28 28 28 25 27 27 25 23 22 22 22 22 23 24 24 24 24 24 25 25 26 26 26 27 28 29 30
40 35 34 36 35 32 34 31 31 31 30 30 34 28 31 29 30 27 27 28 25 24 27 25 23 23 23 22 23 24 24 24 25 25 25 26 26 26 27 28 29 30 31 32
40 34 31 29 29 29 29 31 32 31 29 31 34 28 37 29 32 28 24 24 24 21 23 23 23 22 21 22 23 23 24 24 25 25 25 26 26 27 28 30 30 32 33 34
34 39 38 33 32 31 28 27 25 25 29 32 30 28 34 28 23 19 21 23 22 22 22 22 22 22 23 23 23 24 25 25 25 26 27 27 28 29 30 31 32 34 35 36
25 27 31 34 38 32 31 28 26 25 25 28 31 33 29 17 17 17 16 22 23 21 23 23 23 23 24 23 24 25 25 25 26 26 27 28 29 29 31 32 34 35 36 38
22 33 24 20 22 33 33 32 29 30 33 31 32 34 31 24 18 17 19 19 22 22 22 23 23 24 23 23 23 24 25 25 25 25 26 27 28 30 31 34 35 36 38 39
21 23 26 21 20 26 31 27 26 20 23 27 28 29 25 15 15 22 19 18 19 19 20 21 21 21 21 21 22 22 23 23 24 25 27 28 30 32 34 35 36 37 37 38
23 25 28 24 23 25 21 23 22 20 18 18 18 21 11 11 15 18 15 16 18 19 19 20 20 21 21 21 21 23 24 25 25 27 28 29 30 32 33 33 35 36 37 38
21 21 20 28 25 24 21 19 26 24 26 24 25 30 24 14 14 18 18 20 21 21 22 23 22 22 21 22 22 23 23 23 24 25 27 28 30 31 32 33 35 36 37 37
18 21 23 25 24 24 25 21 18 21 23 26 27 27 18 14 18 16 17 21 22 20 21 21 20 20 21 21 21 21 22 23 25 26 28 29 30 30 32 33 34 35 36 37
22 25 27 27 27 26 24 26 27 24 24 26 32 33 29 25 22 16 20 22 19 20 21 19 19 20 21 22 22 22 23 24 25 26 27 28 29 30 31 32 34 35 35 36
23 27 29 32 33 35 35 32 31 30 30 27 27 30 30 31 29 29 26 25 26 25 24 22 21 21 21 22 21 21 22 23 24 26 25 26 28 29 31 32 33 34 35 36
28 30 30 31 32 32 34 34 35 32 31 30 31 33 31 30 28 28 27 26 26 26 25 23 20 22 22 23 22 21 22 23 23 24 25 26 27 28 30 31 33 34 35 35
26 23 24 28 28 29 28 32 30 30 32 32 33 34 31 32 31 29 28 23 23 24 24 23 19 20 21 20 20 21 21 21 21 22 22 24 26 27 29 31 32 33 33 33
25 26 24 25 26 29 31 29 30 28 27 27 29 28 28 29 29 23 25 24 19 20 21 20 18 17 18 19 19 19 18 18 19 20 22 24 26 26 27 28 29 29 30 31
32 29 28 29 30 32 33 32 26 27 30 29 25 24 26 26 21 18 22 21 18 18 18 19 19 19 17 17 16 15 15 16 18 20 22 22 23 23 24 25 26 27 28 29
32 33 30 29 28 31 33 31 29 26 27 27 19 23 24 24 26 17 13 11 12 13 15 16 16 15 14 13 13 14 15 16 18 19 19 19 20 20 21 21 22 24 26 28
18 23 26 26 28 30 33 29 25 15 19 17 17 20 19 16 17 19 13 10 11 13 14 14 13 12 12 12 12 13 14 15 16 15 16 16 16 16 17 19 21 23 26 28
23 17 16 25 27 25 17 22 24 25 22 18 21 16 13 12 11 11 13 13 14 14 14 14 12 12 11 12 12 12 13 13 13 13 12 12 12 14 16 18 21 23 25 28
27 27 24 20 12 21 19 16 19 14 15 18 18 17 15 17 16 15 15 15 15 15 14 14 13 11 10 10 11 11 11 10 10 9 8 9 11 13 15 18 20 23 25 28
27 24 26 26 27 23 24 24 23 21 17 16 17 18 19 18 17 18 15 14 14 14 13 12 11 10 9 9 9 9 8 7 6 5 6 8 11 13 15 18 20 23 25 27
26 24 24 27 25 25 27 25 24 22 20 17 17 18 18 15 15 14 15 14 14 14 13 11 10 10 9 8 7 7 6 4 3 4 6 8 10 13 15 18 21 23 25 27
23 24 23 22 21 20 22 20 18 16 17 17 15 14 14 15 14 13 12 12 13 12 11 11 11 10 9 7 6 5 4 3 2 3 6 8 10 13 16 19 21 24 26 27
Wind_Direction
255 257 257 257 255 259 265 268 270 269 273 275 269 267 269 265 246 246 246 244 241 242 242 244 247 249 251 252 252 254 256 261 266 271 277 282 286 287 288 290 293 294 297 298
259 255 258 261 263 265 262 263 265 267 268 267 270 269 265 264 259 251 248 248 244 241 240 242 246 249 251 251 251 252 255 260 266 271 276 280 283 285 287 289 292 294 297 297
258 259 259 259 257 260 259 261 265 267 270 269 272 268 267 265 262 260 250 246 246 242 238 240 245 249 251 251 251 253 257 261 266 271 275 280 282 284 285 290 291 294 296 298
259 260 259 255 258 259 262 258 262 265 265 265 264 273 269 274 265 253 254 242 246 241 236 239 244 249 252 253 254 256 259 262 267 272 276 279 282 284 286 288 291 294 296 297
258 257 257 259 258 258 261 262 266 267 267 271 262 266 270 267 263 262 250 239 244 244 234 237 243 248 253 255 255 257 259 264 268 272 276 279 281 284 286 289 292 294 296 297
259 258 259 263 257 262 269 262 262 263 261 259 263 263 269 270 271 271 240 241 243 233 232 238 244 250 254 256 258 258 260 265 270 274 277 280 282 285 287 290 292 294 295 296
257 256 254 254 256 258 259 258 256 257 250 258 263 261 265 272 272 265 235 237 239 239 234 237 246 251 255 258 259 261 264 267 271 274 278 280 283 286 288 291 293 294 295 296
258 254 245 244 246 249 248 247 248 256 258 264 267 263 268 276 259 251 244 239 239 237 243 244 247 253 257 259 261 263 266 269 273 276 279 281 285 287 289 292 294 295 296 297
265 253 249 247 250 240 247 248 252 258 265 267 263 267 271 261 255 256 260 246 237 243 245 246 251 255 256 260 262 265 267 271 274 277 280 284 286 289 291 293 295 297 297 297
258 264 254 244 252 250 245 250 252 251 256 258 260 263 266 269 248 259 256 247 241 241 243 246 251 253 258 261 264 265 269 273 277 280 283 286 289 291 293 295 297 298 299 299
260 256 253 249 246 245 249 252 241 246 245 253 263 259 245 263 260 264 252 241 242 244 245 248 253 257 261 263 265 268 273 276 279 282 285 288 291 294 296 297 299 300 300 301
249 255 253 243 235 249 255 246 256 256 251 255 256 254 261 273 269 260 252 250 245 250 252 252 255 257 262 266 269 272 274 277 282 286 289 291 294 296 297 299 300 301 303 303
258 248 252 250 250 249 254 259 269 264 263 253 255 260 264 261 269 276 265 262 254 252 249 248 254 259 265 270 271 273 277 281 285 289 292 294 296 297 299 301 302 303 304 304
251 254 254 256 260 264 259 263 262 258 261 271 258 261 258 267 269 255 270 260 254 246 246 254 261 265 268 271 272 275 279 283 287 291 294 296 298 300 302 303 304 304 305 305
250 253 257 259 261 264 265 266 263 258 254 252 268 265 264 265 267 272 269 261 252 245 246 252 260 264 270 273 274 277 281 286 290 294 296 298 300 302 304 305 306 306 307 307
249 257 261 262 262 263 264 262 260 261 263 263 265 266 267 270 271 274 273 271 246 245 238 251 259 261 267 269 272 277 283 288 292 295 298 300 302 305 307 308 309 309 309 309
254 256 258 258 261 262 260 258 265 263 262 261 261 263 269 269 270 270 267 267 248 242 241 250 257 262 265 267 270 277 284 289 293 297 300 303 306 308 310 311 312 312 313 313
253 254 254 262 266 263 261 262 263 268 264 263 264 265 268 269 268 265 261 259 254 240 239 251 256 264 267 267 272 279 283 288 293 298 303 306 309 311 314 316 317 318 319 319
251 256 259 259 258 264 268 263 264 263 266 267 270 272 273 269 271 259 264 255 244 242 245 249 252 266 265 266 269 274 282 290 295 301 305 309 312 315 318 320 323 324 325 324
248 249 251 253 254 257 260 263 263 267 266 264 266 272 276 282 255 252 256 244 238 238 242 245 251 256 259 260 265 275 285 293 299 304 308 313 317 321 325 329 333 335 336 334
245 241 242 248 251 259 260 263 268 258 264 263 270 269 273 279 251 228 231 237 242 244 244 243 242 243 251 260 269 281 289 296 300 305 311 317 323 329 336 338 340 342 343 342
254 249 251 252 255 257 263 260 258 263 268 268 252 259 258 236 227 234 239 244 247 246 239 233 236 245 254 264 272 282 291 296 301 307 315 324 332 337 341 345 347 348 348 349
254 253 259 248 270 258 274 260 265 265 266 254 249 245 246 245 243 242 251 249 247 239 235 229 237 244 255 266 274 282 290 295 302 312 324 336 341 345 347 350 351 352 352 352
256 260 258 260 257 265 268 263 258 260 261 259 262 251 248 247 245 242 243 243 235 228 227 225 229 238 251 267 275 279 285 293 301 320 334 342 347 349 352 354 355 355 355 354
255 261 260 257 261 270 262 265 258 251 257 256 262 256 245 235 235 232 232 241 228 219 220 222 229 238 251 258 264 275 279 274 289 330 342 348 352 355 356 356 355 355 354 355
252 251 247 250 260 260 260 266 262 256 245 254 256 246 235 227 230 219 220 212 209 214 219 227 232 238 242 245 256 259 250 251 283 329 345 349 353 355 355 355 355 356 355 355